Location: Star Hoppers Observatory
(42.7905°N, 83.6127°W)
Time: 05:28:41
(UTC-04:00)

Daily predictions for brighter satellites

Satellite Brightness Start Highest point End
(mag) Time Altitude Azimuth Time Altitude Azimuth Time Altitude Azimuth
H-2A R/B 3.6 00:10:18 34° NNW 00:10:18 34° NNW 00:12:53 10° NNW
ATLAS 3B R/B 3.5 00:05:10 10° NW 00:11:07 35° WSW 00:11:07 35° WSW
Cosmos 2219 Rocket 2.6 00:14:24 59° N 00:14:24 59° N 00:19:02 10° NNE
COSMOS 2428 3.6 00:17:01 41° W 00:17:59 45° WNW 00:23:29 10° NNE
SL-16 R/B 4.2 00:21:37 17° ENE 00:21:37 17° ENE 00:23:07 10° NE
CZ-2C R/B 4.0 00:16:24 10° NNE 00:19:21 30° NE 00:19:21 30° NE
Terra 3.5 00:24:36 27° WNW 00:24:36 27° WNW 00:27:43 10° NW
NOSS 3-2 (C) 3.9 00:18:35 10° NW 00:26:09 82° WSW 00:26:27 80° SSW
Cosmos 2333 Rocket 2.8 00:32:48 53° N 00:32:48 53° N 00:37:15 10° NNE
CZ-2C R/B 4.3 00:41:31 35° N 00:41:31 35° N 00:44:17 10° N
NOSS 0 Rocket 4.3 00:49:37 61° NNW 00:49:37 61° NNW 00:55:09 10° NNE
NOSS 3-4 (A) 3.9 00:54:01 60° NW 00:54:01 60° NW 01:00:12 10° NNE
NOSS 3-4 (C) 3.8 00:54:09 61° NW 00:54:09 61° NW 01:00:18 10° NNE
Cosmos 2184 Rocket 4.5 00:56:51 55° NNE 00:56:51 55° NNE 01:01:37 10° N
Cosmos 2237 Rocket 3.1 00:57:09 46° N 00:57:09 46° N 01:01:14 10° NNE
Mayak 1.6 00:51:47 10° NNE 00:52:17 13° NNE 00:52:17 13° NNE
Cosmos 2369 Rocket 4.4 00:55:04 10° N 00:58:31 16° NE 00:59:57 15° ENE
Cosmos 2074 Rocket 4.4 01:01:31 59° N 01:01:31 59° N 01:06:31 10° N
CENTAUR R/B 3.0 00:56:20 10° NW 01:04:14 76° NE 01:04:37 75° ENE
USA 215 3.6 01:13:11 55° NE 01:13:45 57° NNE 01:20:08 10° NW
Lacrosse 5 4.4 01:17:03 10° WNW 01:20:42 19° NNW 01:24:20 10° NNE
ATLAS CENTAUR R/B 4.4 01:18:19 10° NNW 01:18:29 11° NNW 01:18:29 11° NNW
Cosmos 2278 Rocket 4.1 01:29:04 10° NW 01:31:25 20° WNW 01:31:25 20° WNW
ATLAS CENTAUR R/B 3.5 01:26:26 10° NW 01:35:02 52° N 01:35:02 52° N
COSMOS 2455 3.8 01:38:26 10° NNW 01:42:18 42° NW 01:42:18 42° NW
CZ-2C R/B 4.4 01:57:14 10° N 02:00:52 25° NW 02:00:52 25° NW
SL-16 R/B 3.3 02:03:29 39° NNW 02:03:29 39° NNW 02:07:43 10° NNE
SL-8 Rocket 4.3 02:29:59 62° N 02:29:59 62° N 02:35:09 10° N
Mayak 1.5 02:28:01 10° NNW 02:28:57 14° NNW 02:28:57 14° NNW
Cosmos 1943 Rocket 3.2 02:26:13 10° NNW 02:31:11 41° NE 02:31:11 41° NE
SL-16 R/B 4.3 02:30:31 17° E 02:33:34 25° ENE 02:38:29 10° N
Cosmos 2218 Rocket 4.2 02:35:42 69° N 02:35:42 69° N 02:41:15 10° N
Resurs 1-4 Rocket 4.3 02:35:16 10° NE 02:38:17 15° E 02:38:21 15° E
Cosmos 2369 Rocket 3.0 02:37:41 10° NNW 02:41:42 47° NNW 02:41:42 47° NNW
CZ-3A R/B 3.9 02:33:39 10° NW 02:46:17 65° NNE 02:51:40 10° ESE
CZ-2D R/B 4.1 02:44:58 10° NE 02:48:43 19° E 02:48:55 19° E
CENTAUR R/B 4.4 02:47:54 10° NW 02:51:45 24° W 02:51:45 24° W
Cosmos 1943 3.6 02:56:08 59° NNE 02:56:08 59° NNE 03:00:42 10° NNE
Cosmos 841 Rocket 4.4 03:01:51 44° ENE 03:01:51 44° ENE 03:05:44 10° NNE
SL-24 R/B - RUBIN 2 4.5 03:03:12 76° N 03:03:12 76° N 03:08:58 10° NNE
ARIANE 5 R/B 4.1 03:07:25 10° NE 03:11:44 25° E 03:12:11 25° ESE
BREEZE-M DEB (TANK) 3.5 03:13:14 80° NW 03:13:24 81° NNW 03:28:34 10° ENE
SL-08 R/B 4.1 03:15:58 48° NNE 03:15:58 48° NNE 03:19:36 10° N
Meteor 1-16 Rocket 4.3 03:17:55 79° NNE 03:17:55 79° NNE 03:23:24 10° N
ADEOS Rocket 2.8 03:16:39 10° NNE 03:21:45 76° NE 03:21:45 76° NE
IRS-1D 4.1 03:31:17 10° NNE 03:36:15 47° E 03:36:35 47° ESE
Cosmos 2221 3.5 03:41:00 42° ENE 03:41:00 42° ENE 03:44:46 10° NNE
Cosmos 2058 4.2 03:37:33 10° N 03:40:03 36° N 03:40:03 36° N
Cosmos 967 Rocket 4.5 03:42:05 63° W 03:42:38 66° NW 03:48:57 10° NNE
ADEOS 4.4 03:39:25 10° NNE 03:44:23 42° E 03:45:16 39° SE
Meteor 1-11 4.3 03:38:53 10° NNW 03:43:53 61° WNW 03:43:53 61° WNW
Spot 4 Rocket 4.3 03:39:41 10° NNE 03:44:48 58° E 03:45:09 57° ESE
NPP 3.7 03:42:15 10° N 03:47:30 67° WNW 03:47:30 67° WNW
COSMOS 2406 3.9 03:47:05 39° SE 03:48:03 43° ESE 03:53:24 10° NE
CBERS-1 4.1 03:44:06 10° N 03:48:52 66° NW 03:48:52 66° NW
Cosmos 372 Rocket 4.2 03:44:37 10° NNW 03:49:46 65° ENE 03:51:00 49° SE
Cosmos 2098 Rocket 3.7 03:52:12 71° S 03:52:54 87° E 03:58:04 10° N
IRS-1C 4.0 03:48:18 10° NNE 03:53:39 81° WNW 03:53:50 80° WSW
Cosmos 1842 Rocket 4.4 03:54:54 41° NNW 03:54:54 41° NNW 03:58:01 10° N
Cosmos 1763 Rocket 4.3 03:54:51 38° NW 03:54:51 38° NW 03:59:12 10° N
Cosmos 540 Rocket 3.3 03:58:15 85° S 03:58:22 88° ESE 04:03:32 10° NNE
Meteor 2-1 Rocket 4.0 03:58:39 74° SSW 03:59:08 83° W 04:04:43 10° N
Cosmos 1908 3.9 04:03:42 52° NNE 04:03:42 52° NNE 04:06:46 10° NNE
Cosmos 836 Rocket 4.4 04:03:20 74° WSW 04:03:38 77° WNW 04:08:58 10° NNE
MOS 1 Rocket 3.1 04:02:53 10° NNE 04:07:14 74° ESE 04:07:19 73° ESE
Cosmos 2151 4.4 04:06:44 10° NNW 04:08:56 27° NW 04:08:56 27° NW
Cosmos 1300 4.4 04:12:33 24° ESE 04:13:37 28° E 04:16:55 10° NNE
Cosmos 1242 Rocket 4.5 04:15:31 22° NNW 04:15:31 22° NNW 04:17:11 10° N
Cosmos 1125 Rocket 3.4 04:08:53 10° NNW 04:14:04 67° WSW 04:14:14 66° WSW
Cosmos 1943 Rocket 3.7 04:10:18 10° NW 04:12:38 21° WNW 04:12:38 21° WNW
Sich 1 3.9 04:11:28 10° N 04:15:44 47° ENE 04:17:46 27° SE
SL-16 R/B 2.6 04:15:37 51° SW 04:16:45 58° W 04:22:53 10° NNW
Resurs 1-4 Rocket 2.0 04:13:23 10° N 04:18:37 69° WNW 04:19:26 59° WSW
Cosmos 2123 Rocket 3.9 04:12:47 10° NNW 04:19:01 69° W 04:20:53 46° SSW
CZ-2D R/B 4.0 04:16:42 10° NNE 04:20:35 48° E 04:21:16 43° SE
Cosmos 1821 Rocket 4.3 04:20:12 42° WSW 04:21:12 45° WNW 04:27:09 10° N
Cosmos 1656 Rocket 3.7 04:17:30 10° NNW 04:23:05 59° WSW 04:24:03 52° SSW
ERS-1 4.5 04:18:34 10° N 04:23:27 60° WNW 04:24:03 56° WSW
Cosmos 1315 Rocket 3.4 04:22:58 10° N 04:26:58 56° ENE 04:28:33 32° SE
CZ-2D R/B 2.3 04:23:54 10° N 04:29:10 57° WNW 04:30:15 48° WSW
Cosmos 1934 Rocket 4.3 04:34:38 39° WSW 04:36:00 44° WNW 04:41:47 10° N
USA 229 DEB 3.7 04:28:59 10° NW 04:36:07 70° WSW 04:43:22 10° SSE
USA 229 3.7 04:29:06 10° NW 04:36:13 71° WSW 04:43:29 10° SSE
Cosmos 2082 Rocket 4.4 04:36:45 10° SE 04:40:36 19° E 04:44:27 10° NE
PSLV R/B 3.8 04:42:54 47° ESE 04:42:54 47° ESE 04:45:25 10° E
Cosmos 1633 Rocket 3.1 04:39:47 10° N 04:44:11 80° E 04:46:49 23° SSE
Tiangong 2 3.9 04:46:42 11° SE 04:46:42 11° SE 04:47:13 10° SE
USA 161 3.4 04:47:07 22° NE 04:47:07 22° NE 04:48:18 10° NNE
Cosmos 292 Rocket 3.7 04:46:25 42° SSW 04:48:04 84° WNW 04:52:54 10° NNE
Lacrosse 5 3.5 04:45:01 10° NW 04:49:41 36° NNE 04:54:21 10° E
Cosmos 1605 Rocket 4.3 04:47:30 34° SW 04:50:03 52° WNW 04:56:19 10° N
ARIANE 5 R/B 3.1 04:46:04 10° N 04:50:59 42° WNW 04:52:31 33° WSW
UNKNOWN OBJECT B 3.1 04:55:03 10° N 04:59:00 50° WNW 05:00:00 40° WSW
Cosmos 1400 Rocket 4.0 04:56:28 10° NNW 04:59:08 26° WNW 04:59:08 26° WNW
MOZ.5/SAFIR/RUBIN 5/SL-8 4.2 05:00:54 34° SW 05:01:59 39° W 05:06:24 10° NNW
Cosmos 1726 2.5 05:03:54 40° WSW 05:04:27 44° WNW 05:08:02 10° N
Cosmos 2369 4.5 05:00:55 10° NNW 05:06:29 54° ENE 05:12:00 10° SE
Cosmos 1328 Rocket 3.4 05:05:17 23° S 05:07:56 88° WNW 05:12:18 10° N
SL-27 R/B 2.6 05:08:12 42° WSW 05:08:52 51° WNW 05:12:14 10° N
ADEOS II 2.5 05:04:07 10° NNE 05:09:21 63° E 05:14:33 10° S
Cosmos 1892 4.0 05:06:23 10° N 05:10:02 42° ENE 05:13:41 10° SSE
Cosmos 2016 Rocket 4.3 05:04:15 10° S 05:10:18 66° E 05:16:20 10° NNE
NOSS 3-1 (C) 4.0 05:03:22 10° NW 05:10:59 82° WSW 05:19:25 10° SSE
MOS 1-B 4.4 05:07:04 10° NNE 05:12:55 80° ESE 05:18:38 10° SSW
Shenzhou-11 Module 3.7 05:14:51 21° S 05:15:32 22° SSE 05:18:02 10° E
In-Cosmos 22 Rocket 4.0 05:10:59 10° NNW 05:16:23 77° W 05:21:41 10° S
Cosmos 1666 Rocket 4.2 05:13:00 10° NNW 05:17:04 36° W 05:18:57 25° SW
PSLV R/B 4.4 05:13:02 10° NNE 05:17:16 49° E 05:21:26 10° S
Cosmos 2221 4.2 05:17:53 17° W 05:18:27 17° WNW 05:21:19 10° NNW
BREEZE-M DEB (TANK) 3.8 05:20:14 14° S 05:20:14 14° S 05:20:57 10° SSE
Meteor 2-2 Rocket 4.3 05:15:54 15° SSW 05:20:56 73° W 05:27:00 10° N
Cosmos 1802 Rocket 4.0 05:18:08 10° S 05:24:20 82° W 05:30:39 10° N
Cosmos 1933 Rocket 3.5 05:21:31 10° N 05:26:01 82° W 05:30:27 10° S
Cosmos 2100 Rocket 4.1 05:21:04 13° SSW 05:26:43 63° W 05:33:04 10° N
Cosmos 773 Rocket 4.0 05:26:23 16° SSW 05:30:40 74° WNW 05:36:00 10° NNE
Abrixas 2.0 05:29:36 23° WNW 05:31:01 65° SSW 05:33:36 10° SE
COSMOS 2406 4.3 05:29:09 18° WSW 05:32:29 30° NW 05:37:30 10° N
COSMOS 2487 3.5 05:29:10 10° S 05:32:33 44° ESE 05:35:57 10° NNE
Okean O Rocket 1.9 05:30:56 10° NNE 05:35:23 71° ESE 05:39:46 10° S
Cosmos 1833 Rocket 3.3 05:33:48 10° S 05:39:18 58° ESE 05:44:51 10° NNE
Cosmos 1151 Rocket 3.0 05:38:30 10° SSW 05:42:46 64° W 05:47:02 10° N
Tsikada Rocket 4.2 05:36:53 10° N 05:43:13 79° E 05:49:35 10° S
Cosmos 1300 4.3 05:47:35 15° WSW 05:49:20 19° WNW 05:52:11 10° NNW
Cosmos 1980 Rocket 3.7 05:47:21 10° NNW 05:52:39 41° ENE 05:57:56 10° SE
Cosmos 2173 Rocket 4.5 05:47:22 10° SSW 05:53:18 43° WNW 05:59:21 10° N
Cosmos 2278 3.7 05:50:44 10° NNW 05:56:19 63° WSW 06:01:52 10° S
Cosmos 482 Debris 3.8 05:58:45 10° WNW 06:01:15 53° SW 06:05:15 10° SE
EO 1 Del DPAF 4.2 05:58:51 10° SSE 06:02:36 54° ENE 06:06:22 10° N
Cosmos 1455 2.3 06:02:03 10° SSW 06:05:44 55° W 06:09:26 10° N
Cosmos 1697 Rocket 2.8 06:02:56 10° NNW 06:08:39 90° E 06:14:19 10° SSE
CZ-4B DEB 4.3 06:04:11 10° N 06:09:41 68° WNW 06:15:08 10° SSW
Cosmos 2228 Rocket 4.5 06:09:12 10° WSW 06:12:39 22° WNW 06:16:07 10° NNW
Cosmos 1371 Rocket 4.4 06:10:33 10° NNW 06:15:47 70° ENE 06:21:02 10° SSE
PSLV R/B 3.8 06:15:59 10° W 06:19:01 39° SSW 06:22:07 10° SE
